Project,Study,Ord_Occ,Event_Num,Cast_ID,Date_Time_UTC,Date_Time_PST,Lat_Dec,Lon_Dec,Sta_ID,Line,Sta,Depth,Pressure,PrQ,Temp1,Temp1Q,Temp2,Temp2Q,TempAve,Salt1,Salt1Q,Salt1_Corr,Salt2,Salt2Q,Salt2_Corr,SaltAve_Corr,Ox1,Ox1Q,Ox1_CruiseCorr,Ox1_StaCorr,Ox2,Ox2Q,Ox2_CruiseCorr,Ox2_StaCorr,OxAve_StaCorr,Ox1uM,Ox1uM_CruiseCorr,Ox1uM_StaCorr,Ox2uM,Ox2uM_CruiseCorr,Ox2uM_StaCorr,OxAveuM_StaCorr,FluorV,FluorQ,EstChl_CruiseCorr,EstChl_StaCorr,ISUSV,ISUSQ,EstNO3_CruiseCorr,EstNO3_StaCorr,SigThetaTS1,SigThetaTS1Q,SigThetaTS2,SigThetaTS2Q,BAT,XMiss,TransQ,pH,pHQ,SPAR,SPARQ,PAR,PARQ,PoT1,PoT2,DynHt,SVA,OxSat1,OxSat2,BTL_Depth,BTL_Temp,SaltB,OxB,OxBuM,Chl-a,Phaeo,NO3,NO2,NH4,PO4,SIL
CalCOFI,2105SH,031,,2105_031d,10-May-2021 13:07:53,10-May-2021 05:07:53,32.98880,-120.34763,086.7 060.0,086.7,060.0,3.000,3.021,,13.0121,,13.0128,,13.0125,33.5494,,33.5506,33.5492,,33.5511,33.5509,5.7418,,6.0709,6.0253,5.8069,,6.0742,6.0170,6.0212,250.111,263.9648,267.7126,252.943,275.2491,267.0211,267.3669,0.0944,,0.4749,0.4653,2.5624,,7.0756,,25.2669,,25.2666,,,,,,,,,,,13.0117,13.0123,0.0020,269.455,96.021,97.109,3,13.011,33.5487,6.037,262.97,0.415,0.180,7.67,0.215,0.37,0.78,5.19
CalCOFI,2105SH,031,,2105_031d,10-May-2021 13:08:21,10-May-2021 05:08:21,32.98876,-120.34772,086.7 060.0,086.7,060.0,4.000,4.028,,13.0126,,13.0130,,13.0128,33.5503,,33.5515,33.5500,,33.5519,33.5517,5.7421,,6.0712,6.0256,5.8104,,6.0778,6.0206,6.0231,250.124,263.9784,267.7266,253.097,275.2631,267.1840,267.4553,0.0908,,0.4490,0.4421,2.5624,,7.0756,,25.2676,,25.2672,,,,,,,,,,,13.0120,13.0125,0.0156,269.422,96.027,97.169,,,,,,,,,,,,
CalCOFI,2105SH,031,,2105_031d,10-May-2021 13:08:27,10-May-2021 05:08:27,32.98874,-120.34773,086.7 060.0,086.7,060.0,5.000,5.036,,13.0130,,13.0134,,13.0132,33.5505,,33.5517,33.5504,,33.5523,33.5520,5.7348,,6.0636,6.0179,5.8112,,6.0786,6.0214,6.0197,249.804,263.6439,267.3838,253.132,274.9175,267.2210,267.3024,0.0921,,0.4584,0.4505,2.5626,,7.0756,,25.2676,,25.2675,,,,,,,,,,,13.0123,13.0128,0.0205,269.443,95.905,97.184,,,,,,,,,,,,
CalCOFI,2105SH,031,,2105_031d,10-May-2021 13:08:30,10-May-2021 05:08:30,32.98875,-120.34772,086.7 060.0,086.7,060.0,6.000,6.043,,13.0150,,13.0142,,13.0146,33.5494,,33.5506,33.5494,,33.5513,33.5510,5.7613,,6.0913,6.0458,5.8112,,6.0786,6.0214,6.0336,250.958,264.8503,268.6199,253.131,276.1638,267.2199,267.9199,0.0921,,0.4584,0.4505,2.5623,,7.0756,,25.2664,,25.2665,,,,,,,,,,,13.0142,13.0134,0.0234,269.587,96.351,97.185,,,,,,,,,,,,
CalCOFI,2105SH,031,,2105_031d,10-May-2021 13:08:32,10-May-2021 05:08:32,32.98875,-120.34774,086.7 060.0,086.7,060.0,7.000,7.050,,13.0150,,13.0151,,13.0151,33.5497,,33.5509,33.5496,,33.5515,33.5512,5.7440,,6.0732,6.0276,5.7995,,6.0665,6.0092,6.0184,250.205,264.0631,267.8133,252.622,275.3506,266.6815,267.2474,0.0990,,0.5080,0.4951,2.5620,,7.0756,,25.2666,,25.2666,,,,,,,,,,,13.0140,13.0141,0.0261,269.589,96.062,96.991,,,,,,,,,,,,
CalCOFI,2105SH,031,,2105_031d,10-May-2021 13:08:34,10-May-2021 05:08:34,32.98874,-120.34775,086.7 060.0,086.7,060.0,8.000,8.057,,13.0145,,13.0151,,13.0148,33.5493,,33.5505,33.5490,,33.5509,33.5507,5.7312,,6.0598,6.0141,5.8027,,6.0698,6.0126,6.0134,249.647,263.4798,267.2156,252.764,274.7480,266.8317,267.0237,0.1029,,0.5360,0.5203,2.5617,,7.0756,,25.2665,,25.2661,,,,,,,,,,,13.0134,13.0140,0.0288,269.635,95.847,97.045,,,,,,,,,,,,
CalCOFI,2105SH,031,,2105_031d,10-May-2021 13:08:35,10-May-2021 05:08:35,32.98874,-120.34776,086.7 060.0,086.7,060.0,9.000,9.064,,13.0144,,13.0148,,13.0146,33.5489,,33.5501,33.5488,,33.5507,33.5504,5.7402,,6.0692,6.0236,5.8115,,6.0790,6.0218,6.0227,250.040,263.8906,267.6366,253.144,275.1724,267.2337,267.4352,0.0925,,0.4613,0.4530,2.5614,,7.0756,,25.2662,,25.2661,,,,,,,,,,,13.0132,13.0136,0.0315,269.686,95.998,97.190,,,,,,,,,,,,
CalCOFI,2105SH,031,,2105_031d,10-May-2021 13:08:37,10-May-2021 05:08:37,32.98874,-120.34775,086.7 060.0,086.7,060.0,10.000,10.071,,13.0137,,13.0144,,13.0141,33.5497,,33.5509,33.5493,,33.5512,33.5511,5.7139,,6.0417,5.9959,5.8081,,6.0754,6.0182,6.0071,248.895,262.6936,266.4101,252.997,273.9358,267.0782,266.7442,0.0896,,0.4403,0.4343,2.5611,,7.0756,,25.2670,,25.2666,,,,,,,,,,,13.0124,13.0131,0.0343,269.637,95.557,97.133,10,13.011,,,262.97,0.458,0.186,7.67,0.212,0.38,0.78,5.19
CalCOFI,2105SH,031,,2105_031d,10-May-2021 13:08:40,10-May-2021 05:08:40,32.98874,-120.34772,086.7 060.0,086.7,060.0,11.000,11.078,,13.0119,,13.0115,,13.0117,33.5513,,33.5525,33.5516,,33.5535,33.5530,5.7094,,6.0370,5.9911,5.8080,,6.0753,6.0181,6.0046,248.699,262.4887,266.2002,252.991,273.7241,267.0718,266.6360,0.0991,,0.5087,0.4957,2.5606,,7.0756,,25.2686,,25.2689,,,,,,,,,,,13.0104,13.0100,0.0370,269.513,95.479,97.127,,,,,,,,,,,,
CalCOFI,2105SH,031,,2105_031d,10-May-2021 13:08:41,10-May-2021 05:08:41,32.98874,-120.34774,086.7 060.0,086.7,060.0,12.000,12.086,,13.0027,,13.0052,,13.0040,33.5572,,33.5584,33.5555,,33.5574,33.5579,5.7356,,6.0644,6.0187,5.8068,,6.0741,6.0169,6.0178,249.836,263.6774,267.4181,252.940,274.9521,267.0179,267.2180,0.0923,,0.4598,0.4518,2.5603,,7.0756,,25.2751,,25.2733,,,,,,,,,,,13.0010,13.0035,0.0397,268.923,95.902,97.097,,,,,,,,,,,,
CalCOFI,2105SH,031,,2105_031d,10-May-2021 13:08:43,10-May-2021 05:08:43,32.98872,-120.34774,086.7 060.0,086.7,060.0,13.000,13.093,,12.9931,,12.9933,,12.9932,33.5631,,33.5643,33.5629,,33.5648,33.5646,5.7467,,6.0760,6.0304,5.8095,,6.0769,6.0197,6.0251,250.320,264.1833,267.9365,253.056,275.4748,267.1406,267.5386,0.0923,,0.4598,0.4518,2.5601,,7.0756,,25.2816,,25.2814,,,,,,,,,,,12.9913,12.9915,0.0424,268.334,96.073,97.123,,,,,,,,,,,,
CalCOFI,2105SH,031,,2105_031d,10-May-2021 13:08:45,10-May-2021 05:08:45,32.98872,-120.34774,086.7 060.0,086.7,060.0,14.000,14.100,,12.9908,,12.9912,,12.9910,33.5644,,33.5656,33.5641,,33.5660,33.5658,5.7400,,6.0690,6.0234,5.8083,,6.0756,6.0184,6.0209,250.026,263.8760,267.6216,253.000,275.1573,267.0814,267.3515,0.0896,,0.4403,0.4343,2.5598,,7.0756,,25.2830,,25.2827,,,,,,,,,,,12.9889,12.9893,0.0451,268.222,95.956,97.099,,,,,,,,,,,,
CalCOFI,2105SH,031,,2105_031d,10-May-2021 13:08:47,10-May-2021 05:08:47,32.98872,-120.34776,086.7 060.0,086.7,060.0,15.000,15.107,,12.9787,,12.9837,,12.9812,33.5723,,33.5735,33.5689,,33.5708,33.5722,5.7377,,6.0666,6.0210,5.8074,,6.0747,6.0175,6.0193,249.926,263.7714,267.5145,252.961,275.0493,267.0401,267.2773,0.0912,,0.4519,0.4446,2.5595,,7.0756,,25.2915,,25.2880,,,,,,,,,,,12.9766,12.9817,0.0478,267.438,95.900,97.072,,,,,,,,,,,,
CalCOFI,2105SH,031,,2105_031d,10-May-2021 13:08:49,10-May-2021 05:08:49,32.98874,-120.34776,086.7 060.0,086.7,060.0,16.000,16.114,,12.9733,,12.9715,,12.9724,33.5752,,33.5764,33.5758,,33.5777,33.5771,5.7306,,6.0592,6.0135,5.8115,,6.0790,6.0218,6.0177,249.613,263.4442,267.1792,253.138,274.7112,267.2274,267.2033,0.0996,,0.5123,0.4989,2.5591,,7.0756,,25.2949,,25.2957,,,,,,,,,,,12.9712,12.9693,0.0505,267.143,95.771,97.120,,,,,,,,,,,,
CalCOFI,2105SH,031,,2105_031d,10-May-2021 13:08:51,10-May-2021 05:08:51,32.98874,-120.34776,086.7 060.0,086.7,060.0,17.000,17.121,,12.9588,,12.9623,,12.9606,33.5829,,33.5841,33.5804,,33.5823,33.5832,5.7469,,6.0762,6.0306,5.8103,,6.0777,6.0205,6.0256,250.322,264.1854,267.9386,253.086,275.4770,267.1723,267.5555,0.0965,,0.4901,0.4789,2.5587,,7.0756,,25.3038,,25.3011,,,,,,,,,,,12.9565,12.9600,0.0532,266.326,96.020,97.085,,,,,,,,,,,,
CalCOFI,2105SH,031,,2105_031d,10-May-2021 13:08:52,10-May-2021 05:08:52,32.98873,-120.34776,086.7 060.0,086.7,060.0,18.000,18.129,,12.9443,,12.9460,,12.9452,33.5893,,33.5905,33.5880,,33.5899,33.5902,5.7390,,6.0679,6.0223,5.8077,,6.0750,6.0178,6.0201,249.978,263.8258,267.5702,252.971,275.1054,267.0507,267.3105,0.0947,,0.4771,0.4673,2.5583,,7.0756,,25.3116,,25.3103,,,,,,,,,,,12.9419,12.9436,0.0558,265.607,95.864,97.014,,,,,,,,,,,,
CalCOFI,2105SH,031,,2105_031d,10-May-2021 13:08:54,10-May-2021 05:08:54,32.98874,-120.34776,086.7 060.0,086.7,060.0,19.000,19.136,,12.9353,,12.9395,,12.9374,33.5929,,33.5941,33.5905,,33.5924,33.5933,5.7487,,6.0781,6.0325,5.8111,,6.0785,6.0213,6.0269,250.398,264.2649,268.0201,253.117,275.5590,267.2051,267.6126,0.0967,,0.4915,0.4802,2.5579,,7.0756,,25.3162,,25.3135,,,,,,,,,,,12.9328,12.9369,0.0585,265.198,96.009,97.059,,,,,,,,,,,,
CalCOFI,2105SH,031,,2105_031d,10-May-2021 13:08:57,10-May-2021 05:08:57,32.98872,-120.34778,086.7 060.0,086.7,060.0,20.000,20.143,,12.9226,,12.9193,,12.9210,33.5982,,33.5994,33.5991,,33.6010,33.6002,5.7233,,6.0515,6.0058,5.8102,,6.0776,6.0204,6.0131,249.291,263.1076,266.8343,253.074,274.3635,267.1596,266.9970,0.1005,,0.5188,0.5048,2.5569,,7.0756,,25.3228,,25.3242,,,,,,,,,,,12.9199,12.9166,0.0612,264.596,95.564,97.008,,,,,,,,,,,,
CalCOFI,2105SH,031,,2105_031d,10-May-2021 13:08:58,10-May-2021 05:08:58,32.98872,-120.34778,086.7 060.0,086.7,060.0,21.000,21.150,,12.8917,,12.8946,,12.8932,33.6125,,33.6137,33.6092,,33.6111,33.6124,5.7107,,6.0384,5.9925,5.8075,,6.0748,6.0176,6.0051,248.738,262.5295,266.2419,252.956,273.7662,267.0348,266.6384,0.1011,,0.5231,0.5086,2.5565,,7.0756,,25.3400,,25.3369,,,,,,,,,,,12.8889,12.8917,0.0638,262.987,95.301,96.920,,,,,,,,,,,,
CalCOFI,2105SH,031,,2105_031d,10-May-2021 13:08:59,10-May-2021 05:08:59,32.98874,-120.34778,086.7 060.0,086.7,060.0,22.000,22.157,,12.8718,,12.8703,,12.8711,33.6192,,33.6204,33.6186,,33.6205,33.6205,5.7114,,6.0391,5.9933,5.8133,,6.0808,6.0236,6.0085,248.765,262.5577,266.2708,253.201,273.7954,267.2940,266.7824,0.1045,,0.5474,0.5306,2.5561,,7.0756,,25.3492,,25.3490,,,,,,,,,,,12.8688,12.8673,0.0665,262.145,95.277,96.973,,,,,,,,,,,,
CalCOFI,2105SH,031,,2105_031d,10-May-2021 13:09:01,10-May-2021 05:09:01,32.98874,-120.34778,086.7 060.0,086.7,060.0,23.000,23.165,,12.8600,,12.8594,,12.8597,33.6216,,33.6228,33.6212,,33.6231,33.6230,5.7401,,6.0691,6.0235,5.8130,,6.0805,6.0233,6.0234,250.013,263.8624,267.6077,253.191,275.1432,267.2834,267.4456,0.1120,,0.6009,0.5791,2.5552,,7.0756,,25.3534,,25.3532,,,,,,,,,,,12.8569,12.8563,0.0691,261.766,95.733,96.949,,,,,,,,,,,,
CalCOFI,2105SH,031,,2105_031d,10-May-2021 13:09:04,10-May-2021 05:09:04,32.98874,-120.34778,086.7 060.0,086.7,060.0,24.000,24.172,,12.8451,,12.8441,,12.8446,33.6244,,33.6256,33.6227,,33.6246,33.6251,5.7308,,6.0594,6.0137,5.8011,,6.0682,6.0109,6.0123,249.607,263.4380,267.1728,252.668,274.7048,266.7302,266.9515,0.1008,,0.5209,0.5067,2.5532,,7.0756,,25.3585,,25.3574,,,,,,,,,,,12.8418,12.8409,0.0718,261.308,95.551,96.719,,,,,,,,,,,,
CalCOFI,2105SH,031,,2105_031d,10-May-2021 13:09:05,10-May-2021 05:09:05,32.98874,-120.34778,086.7 060.0,086.7,060.0,25.000,25.179,,12.8095,,12.8094,,12.8095,33.6290,,33.6302,33.6266,,33.6285,33.6294,5.7325,,6.0611,6.0155,5.7981,,6.0651,6.0078,6.0117,249.680,263.5143,267.2509,252.538,274.7836,266.5927,266.9218,0.1070,,0.5653,0.5468,2.5516,,7.0756,,25.3691,,25.3673,,,,,,,,,,,12.8062,12.8060,0.0744,260.328,95.512,96.604,,,,,,,,,,,,
CalCOFI,2105SH,031,,2105_031d,10-May-2021 13:09:09,10-May-2021 05:09:09,32.98874,-120.34781,086.7 060.0,086.7,060.0,26.000,26.186,,12.7674,,12.7711,,12.7693,33.6339,,33.6351,33.6313,,33.6332,33.6342,5.6837,,6.0101,5.9641,5.7507,,6.0160,5.9584,5.9613,247.550,261.2876,264.9694,250.469,272.4832,264.4041,264.6868,0.1140,,0.6152,0.5920,2.5460,,7.0756,,25.3812,,25.3785,,,,,,,,,,,12.7639,12.7677,0.0770,259.203,94.619,95.740,,,,,,,,,,,,
CalCOFI,2105SH,031,,2105_031d,10-May-2021 13:09:10,10-May-2021 05:09:10,32.98874,-120.34780,086.7 060.0,086.7,060.0,27.000,27.193,,12.7178,,12.7142,,12.7160,33.6407,,33.6419,33.6377,,33.6396,33.6408,5.6627,,5.9882,5.9420,5.7563,,6.0218,5.9642,5.9531,246.635,260.3310,263.9893,250.709,271.4950,264.6580,264.3237,0.1114,,0.5967,0.5752,2.5440,,7.0756,,25.3962,,25.3946,,,,,,,,,,,12.7141,12.7106,0.0796,257.795,94.177,95.724,,,,,,,,,,,,
CalCOFI,2105SH,031,,2105_031d,10-May-2021 13:09:10,10-May-2021 05:09:10,32.98874,-120.34780,086.7 060.0,086.7,060.0,28.000,28.201,,12.6764,,12.6734,,12.6749,33.6458,,33.6470,33.6408,,33.6427,33.6449,5.6750,,6.0010,5.9549,5.7618,,6.0275,5.9699,5.9624,247.165,260.8851,264.5570,250.948,272.0674,264.9108,264.7339,0.1115,,0.5974,0.5758,2.5425,,7.0756,,25.4083,,25.4050,,,,,,,,,,,12.6726,12.6697,0.0822,256.671,94.303,95.737,,,,,,,,,,,,
CalCOFI,2105SH,031,,2105_031d,10-May-2021 13:09:11,10-May-2021 05:09:11,32.98874,-120.34780,086.7 060.0,086.7,060.0,29.000,29.208,,12.6274,,12.6253,,12.6264,33.6517,,33.6529,33.6486,,33.6505,33.6517,5.7042,,6.0316,5.9857,5.7692,,6.0351,5.9777,5.9817,248.435,262.2127,265.9174,251.263,273.4390,265.2440,265.5807,0.1290,,0.7212,0.6890,2.5405,,7.0756,,25.4224,,25.4204,,,,,,,,,,,12.6235,12.6215,0.0848,255.354,94.696,95.768,,,,,,,,,,,,
CalCOFI,2105SH,031,,2105_031d,10-May-2021 13:09:15,10-May-2021 05:09:15,32.98874,-120.34783,086.7 060.0,086.7,060.0,30.000,30.215,,12.6131,,12.6125,,12.6128,33.6522,,33.6534,33.6510,,33.6529,33.6532,5.6544,,5.9795,5.9332,5.7377,,6.0025,5.9448,5.9390,246.266,259.9453,263.5940,249.894,271.0965,263.7958,263.6949,0.1088,,0.5781,0.5584,2.5307,,7.0756,,25.4257,,25.4248,,,,,,,,,,,12.6092,12.6085,0.0877,255.074,93.842,95.223,30,12.568,,,259.57,,,,,,,
CalCOFI,2105SH,031,,2105_031d,10-May-2021 13:09:17,10-May-2021 05:09:17,32.98874,-120.34782,086.7 060.0,086.7,060.0,31.000,31.222,,12.5875,,12.5868,,12.5872,33.6556,,33.6568,33.6528,,33.6547,33.6558,5.6728,,5.9987,5.9526,5.7234,,5.9877,5.9299,5.9413,247.063,260.7785,264.4478,249.267,271.9572,263.1326,263.7902,0.1114,,0.5967,0.5752,2.5261,,7.0756,,25.4333,,25.4312,,,,,,,,,,,12.5834,12.5827,0.0903,254.375,94.098,94.935,,,,,,,,,,,,
CalCOFI,2105SH,031,,2105_031d,10-May-2021 13:09:18,10-May-2021 05:09:18,32.98874,-120.34782,086.7 060.0,086.7,060.0,32.000,32.230,,12.5493,,12.5483,,12.5488,33.6594,,33.6606,33.6568,,33.6587,33.6597,5.6256,,5.9494,5.9029,5.7172,,5.9813,5.9234,5.9132,245.006,258.6281,262.2444,248.996,269.7357,262.8459,262.5452,0.1128,,0.6066,0.5842,2.5215,,7.0756,,25.4437,,25.4418,,,,,,,,,,,12.5451,12.5441,0.0929,253.410,93.244,94.759,,,,,,,,,,,,
CalCOFI,2105SH,031,,2105_031d,10-May-2021 13:09:20,10-May-2021 05:09:20,32.98874,-120.34782,086.7 060.0,086.7,060.0,33.000,33.237,,12.5249,,12.5254,,12.5252,33.6613,,33.6625,33.6591,,33.6610,33.6618,5.6364,,5.9606,5.9142,5.7116,,5.9755,5.9176,5.9159,245.472,259.1152,262.7435,248.749,270.2389,262.5847,262.6641,0.1023,,0.5317,0.5164,2.5160,,7.0756,,25.4499,,25.4481,,,,,,,,,,,12.5206,12.5210,0.0955,252.846,93.376,94.622,,,,,,,,,,,,
CalCOFI,2105SH,031,,2105_031d,10-May-2021 13:09:22,10-May-2021 05:09:22,32.98874,-120.34782,086.7 060.0,086.7,060.0,34.000,34.244,,12.5086,,12.5095,,12.5091,33.6620,,33.6632,33.6601,,33.6620,33.6626,5.6429,,5.9674,5.9211,5.7040,,5.9676,5.9097,5.9154,245.755,259.4111,263.0467,248.419,270.5446,262.2356,262.6412,0.1020,,0.5295,0.5144,2.5106,,7.0756,,25.4536,,25.4520,,,,,,,,,,,12.5041,12.5050,0.0980,252.515,93.452,94.466,,,,,,,,,,,,
CalCOFI,2105SH,031,,2105_031d,10-May-2021 13:09:24,10-May-2021 05:09:24,32.98874,-120.34782,086.7 060.0,086.7,060.0,35.000,35.251,,12.4951,,12.4949,,12.4950,33.6617,,33.6629,33.6599,,33.6618,33.6624,5.5978,,5.9203,5.8736,5.6483,,5.9099,5.8516,5.8626,243.790,257.3569,260.9419,245.989,268.4224,259.6651,260.3035,0.1046,,0.5481,0.5313,2.5026,,7.0756,,25.4560,,25.4546,,,,,,,,,,,12.4905,12.4902,0.1005,252.313,92.679,93.514,,,,,,,,,,,,
CalCOFI,2105SH,031,,2105_031d,10-May-2021 13:09:26,10-May-2021 05:09:26,32.98874,-120.34782,086.7 060.0,086.7,060.0,36.000,36.259,,12.4460,,12.4377,,12.4419,33.6587,,33.6599,33.6523,,33.6542,33.6571,5.5289,,5.8482,5.8010,5.5751,,5.8341,5.7753,5.7882,240.789,254.2196,257.7273,242.803,265.1813,256.2950,257.0112,0.0966,,0.4908,0.4795,2.4931,,7.0756,,25.4632,,25.4598,,,,,,,,,,,12.4413,12.4330,0.1031,251.655,91.444,92.188,,,,,,,,,,,,
CalCOFI,2105SH,031,,2105_031d,10-May-2021 13:09:27,10-May-2021 05:09:27,32.98874,-120.34782,086.7 060.0,086.7,060.0,37.000,37.266,,12.3535,,12.3507,,12.3521,33.6466,,33.6478,33.6374,,33.6393,33.6436,5.5064,,5.8247,5.7773,5.5804,,5.8396,5.7808,5.7791,239.807,253.1930,256.6754,243.031,264.1207,256.5361,256.6058,0.0926,,0.4620,0.4537,2.4869,,7.0756,,25.4717,,25.4651,,,,,,,,,,,12.3486,12.3458,0.1056,250.870,90.889,92.100,,,,,,,,,,,,
CalCOFI,2105SH,031,,2105_031d,10-May-2021 13:09:29,10-May-2021 05:09:29,32.98874,-120.34782,086.7 060.0,086.7,060.0,38.000,38.273,,12.3111,,12.3148,,12.3130,33.6362,,33.6374,33.6324,,33.6343,33.6359,5.5030,,5.8211,5.7737,5.5813,,5.8405,5.7818,5.7778,239.659,253.0383,256.5169,243.070,263.9609,256.5774,256.5472,0.0914,,0.4533,0.4459,2.4780,,7.0756,,25.4717,,25.4681,,,,,,,,,,,12.3061,12.3098,0.1081,250.883,90.747,92.043,,,,,,,,,,,,
CalCOFI,2105SH,031,,2105_031d,10-May-2021 13:09:33,10-May-2021 05:09:33,32.98874,-120.34782,086.7 060.0,086.7,060.0,39.000,39.281,,12.2607,,12.2554,,12.2581,33.6267,,33.6279,33.6200,,33.6219,33.6249,5.2840,,5.5921,5.5430,5.2375,,5.4844,5.4233,5.4832,230.122,243.0683,246.3013,228.099,253.6609,240.7410,243.5212,0.0844,,0.4027,0.4007,2.4298,,7.0756,,25.4740,,25.4698,,,,,,,,,,,12.2556,12.2503,0.1107,250.689,87.041,86.263,,,,,,,,,,,,
CalCOFI,2105SH,031,,2105_031d,10-May-2021 13:09:35,10-May-2021 05:09:35,32.98874,-120.34782,086.7 060.0,086.7,060.0,40.000,40.288,,11.9592,,11.9460,,11.9526,33.5832,,33.5844,33.5574,,33.5593,33.5719,4.9042,,5.1949,5.1430,4.9084,,5.1435,5.0802,5.1116,213.578,225.7732,228.5801,213.763,235.7933,225.5764,227.0783,0.0748,,0.3329,0.3386,2.3962,,7.0756,,25.4974,,25.4799,,,,,,,,,,,11.9541,11.9409,0.1132,248.465,80.251,80.283,,,,,,,,,,,,
CalCOFI,2105SH,031,,2105_031d,10-May-2021 13:09:35,10-May-2021 05:09:35,32.98874,-120.34782,086.7 060.0,086.7,060.0,41.000,41.295,,11.7846,,11.7854,,11.7850,33.5444,,33.5456,33.5188,,33.5207,33.5332,4.8706,,5.1598,5.1076,4.9186,,5.1541,5.0909,5.0993,212.112,224.2407,227.0098,214.206,234.2101,226.0450,226.5274,0.0645,,0.2575,0.2721,2.3846,,7.0756,,25.5000,,25.4800,,,,,,,,,,,11.7794,11.7802,0.1157,248.230,79.390,80.161,,,,,,,,,,,,
CalCOFI,2105SH,031,,2105_031d,10-May-2021 13:09:36,10-May-2021 05:09:36,32.98874,-120.34782,086.7 060.0,086.7,060.0,42.000,42.303,,11.6301,,11.6272,,11.6287,33.5119,,33.5131,33.4974,,33.4993,33.5062,4.8695,,5.1586,5.1064,4.9443,,5.1807,5.1177,5.1121,212.064,224.1905,226.9584,215.323,234.1582,227.2266,227.0925,0.0596,,0.2214,0.2404,2.3734,,7.0756,,25.5034,,25.4926,,,,,,,,,,,11.6248,11.6220,0.1182,247.921,79.098,80.301,,,,,,,,,,,,
CalCOFI,2105SH,031,,2105_031d,10-May-2021 13:09:37,10-May-2021 05:09:37,32.98874,-120.34782,086.7 060.0,086.7,060.0,43.000,43.310,,11.5831,,11.5789,,11.5810,33.5040,,33.5052,33.4925,,33.4944,33.4998,4.8994,,5.1899,5.1379,4.9758,,5.2133,5.1505,5.1442,213.367,225.5527,228.3541,216.696,235.5655,228.6789,228.5165,0.0507,,0.1557,0.1829,2.3617,,7.0756,,25.5059,,25.4978,,,,,,,,,,,11.5777,11.5735,0.1207,247.699,79.501,80.728,,,,,,,,,,,,
CalCOFI,2105SH,031,,2105_031d,10-May-2021 13:09:40,10-May-2021 05:09:40,32.98874,-120.34784,086.7 060.0,086.7,060.0,44.000,44.317,,11.5644,,11.5547,,11.5596,33.5026,,33.5038,33.4995,,33.5014,33.5026,4.9697,,5.2634,5.2120,4.9896,,5.2276,5.1649,5.1885,216.426,228.7505,231.6307,217.295,238.8692,229.3126,230.4717,0.0467,,0.1260,0.1570,2.3054,,7.0756,,25.5083,,25.5077,,,,,,,,,,,11.5588,11.5491,0.1243,247.493,80.609,80.914,,,,,,,,,,,,
CalCOFI,2105SH,031,,2105_031d,10-May-2021 13:09:43,10-May-2021 05:09:43,32.98874,-120.34784,086.7 060.0,086.7,060.0,45.000,45.324,,11.5869,,11.5931,,11.5900,33.5184,,33.5196,33.5220,,33.5239,33.5218,4.8501,,5.1383,5.0860,4.9242,,5.1599,5.0967,5.0914,211.217,223.3051,226.0511,214.444,233.2434,226.2968,226.1740,0.0447,,0.1111,0.1441,2.2499,,7.0756,,25.5165,,25.5181,,,,,,,,,,,11.5812,11.5875,0.1285,246.745,78.714,79.929,,,,,,,,,,,,
CalCOFI,2105SH,031,,2105_031d,10-May-2021 13:09:44,10-May-2021 05:09:44,32.98874,-120.34784,086.7 060.0,086.7,060.0,46.000,46.332,,11.5914,,11.5902,,11.5908,33.5257,,33.5269,33.5221,,33.5240,33.5255,4.8441,,5.1321,5.0797,4.9118,,5.1470,5.0838,5.0818,210.956,223.0322,225.7715,213.902,232.9616,225.7234,225.7475,0.0467,,0.1260,0.1570,2.2374,,7.0756,,25.5213,,25.5188,,,,,,,,,,,11.5856,11.5844,0.1310,246.310,78.628,79.723,,,,,,,,,,,,
CalCOFI,2105SH,031,,2105_031d,10-May-2021 13:09:46,10-May-2021 05:09:46,32.98874,-120.34784,086.7 060.0,086.7,060.0,47.000,47.339,,11.5493,,11.5457,,11.5475,33.5203,,33.5215,33.5163,,33.5182,33.5199,4.8140,,5.1006,5.0480,4.8859,,5.1202,5.0568,5.0524,209.640,221.6565,224.3619,212.773,231.5403,224.5292,224.4456,0.0426,,0.0955,0.1305,2.2135,,7.0756,,25.5249,,25.5224,,,,,,,,,,,11.5434,11.5398,0.1335,245.990,78.066,79.225,,,,,,,,,,,,
CalCOFI,2105SH,031,,2105_031d,10-May-2021 13:09:48,10-May-2021 05:09:48,32.98874,-120.34784,086.7 060.0,086.7,060.0,48.000,48.346,,11.5107,,11.5104,,11.5106,33.5148,,33.5160,33.5122,,33.5141,33.5151,4.8073,,5.0936,5.0409,4.8758,,5.1098,5.0462,5.0436,209.348,221.3512,224.0491,212.333,231.2249,224.0638,224.0565,0.0436,,0.1029,0.1370,2.1949,,7.0756,,25.5277,,25.5258,,,,,,,,,,,11.5047,11.5044,0.1360,245.742,77.891,79.000,,,,,,,,,,,,
CalCOFI,2105SH,031,,2105_031d,10-May-2021 13:09:50,10-May-2021 05:09:50,32.98874,-120.34784,086.7 060.0,086.7,060.0,49.000,49.354,,11.5058,,11.5051,,11.5055,33.5232,,33.5244,33.5203,,33.5222,33.5233,4.8129,,5.0994,5.0468,4.9081,,5.1432,5.0799,5.0634,209.592,221.6063,224.3105,213.737,231.4884,225.5489,224.9297,0.0439,,0.1052,0.1389,2.1896,,7.0756,,25.5352,,25.5331,,,,,,,,,,,11.4997,11.4990,0.1384,245.059,77.978,79.518,,,,,,,,,,,,
CalCOFI,2105SH,031,,2105_031d,10-May-2021 13:09:51,10-May-2021 05:09:51,32.98874,-120.34784,086.7 060.0,086.7,060.0,50.000,50.361,,11.5139,,11.5147,,11.5143,33.5400,,33.5412,33.5407,,33.5426,33.5419,4.8212,,5.1081,5.0555,4.8927,,5.1273,5.0639,5.0597,209.950,221.9805,224.6939,213.066,231.8751,224.8391,224.7665,0.0432,,0.1000,0.1344,2.1834,,7.0756,,25.5468,,25.5472,,,,,,,,,,,11.5076,11.5085,0.1409,243.982,78.134,79.296,50,12.203,,,246.56,0.374,0.360,11.06,0.237,1.17,1.04,9.01
CalCOFI,2105SH,031,,2105_031d,10-May-2021 13:09:54,10-May-2021 05:09:54,32.98874,-120.34784,086.7 060.0,086.7,060.0,51.000,51.368,,11.5118,,11.5117,,11.5118,33.5531,,33.5543,33.5499,,33.5518,33.5531,4.7683,,5.0528,4.9998,4.8283,,5.0606,4.9967,4.9983,207.647,219.5730,222.2271,210.258,229.3878,221.8688,222.0480,0.0423,,0.0933,0.1286,2.1742,,7.0756,,25.5574,,25.5550,,,,,,,,,,,11.5054,11.5053,0.1433,243.000,77.281,78.251,,,,,,,,,,,,
CalCOFI,2105SH,031,,2105_031d,10-May-2021 13:09:56,10-May-2021 05:09:56,32.98874,-120.34785,086.7 060.0,086.7,060.0,52.000,52.376,,11.4666,,11.4639,,11.4653,33.5502,,33.5514,33.5467,,33.5486,33.5500,4.7603,,5.0444,4.9914,4.8171,,5.0490,4.9851,4.9883,207.294,219.2039,221.8489,209.770,229.0066,221.3526,221.6008,0.0439,,0.1052,0.1389,2.1681,,7.0756,,25.5635,,25.5612,,,,,,,,,,,11.4601,11.4575,0.1458,242.442,77.075,77.989,,,,,,,,,,,,
CalCOFI,2105SH,031,,2105_031d,10-May-2021 13:09:58,10-May-2021 05:09:58,32.98874,-120.34784,086.7 060.0,086.7,060.0,53.000,53.383,,11.4432,,11.4437,,11.4435,33.5484,,33.5496,33.5464,,33.5483,33.5490,4.7351,,5.0181,4.9648,4.7990,,5.0302,4.9662,4.9655,206.196,218.0561,220.6728,208.983,227.8208,220.5201,220.5965,0.0419,,0.0903,0.1260,2.1608,,7.0756,,25.5663,,25.5647,,,,,,,,,,,11.4366,11.4371,0.1482,242.189,76.628,77.663,,,,,,,,,,,,
CalCOFI,2105SH,031,,2105_031d,10-May-2021 13:10:00,10-May-2021 05:10:00,32.98874,-120.34784,086.7 060.0,086.7,060.0,54.000,54.391,,11.4273,,11.4265,,11.4269,33.5491,,33.5503,33.5472,,33.5491,33.5497,4.6937,,4.9748,4.9212,4.7593,,4.9891,4.9248,4.9230,204.395,216.1733,218.7437,207.251,225.8757,218.6880,218.7159,0.0476,,0.1327,0.1629,2.1530,,7.0756,,25.5698,,25.5685,,,,,,,,,,,11.4206,11.4198,0.1507,241.881,75.933,76.992,,,,,,,,,,,,
CalCOFI,2105SH,031,,2105_031d,10-May-2021 13:10:01,10-May-2021 05:10:01,32.98874,-120.34784,086.7 060.0,086.7,060.0,55.000,55.398,,11.4143,,11.4141,,11.4142,33.5501,,33.5513,33.5480,,33.5499,33.5506,4.6805,,4.9610,4.9073,4.7392,,4.9683,4.9038,4.9056,203.819,215.5712,218.1267,206.377,225.2536,217.7635,217.9451,0.0449,,0.1126,0.1454,2.1481,,7.0756,,25.5730,,25.5714,,,,,,,,,,,11.4074,11.4072,0.1531,241.604,75.700,76.648,,,,,,,,,,,,